Regional Weather Roundup
Issued by NWS Charleston, WV

Home | Current Version | Previous Version | Graphics & Text | Print | Product List | Glossary On
Versions: 1 2 3 4 5 6 7 8 9 10 11 12 13 14 15 16 17 18 19 20 21 22 23 24 25 26 27 28 29 30 31 32 33 34 35 36 37 38 39 40 41 42 43 44 45 46 47 48 49 50
824
ASUS41 KRLX 191610
RWRRLX
West Virginia Regional Weather Roundup
National Weather Service Charleston WV
1100 AM EST SUN NOV 19 2017

Note: "fair" indicates few or no clouds below 12,000 feet with no
significant weather and/or obstructions to visibility.

WVZ003-191700-
Northern Panhandle of West Virginia

CITY           SKY/WX    TMP DP  RH WIND       PRES   REMARKS
WHEELING       CLOUDY    37  28  70 W20G28    29.84R
$$

WVZ009-191700-
Northwest West Virginia

CITY           SKY/WX    TMP DP  RH WIND       PRES   REMARKS
PARKERSBURG    CLOUDY    40  32  73 W10       29.94R
$$

WVZ006-191700-
Western West Virginia

CITY           SKY/WX    TMP DP  RH WIND       PRES   REMARKS
HUNTINGTON     CLOUDY    41  29  62 W10       29.98R
$$

WVZ015-191700-
West Central West Virginia

CITY           SKY/WX    TMP DP  RH WIND       PRES   REMARKS
CHARLESTON     CLOUDY    41  27  57 W8G25     29.95R
$$

WVZ022-031-191700-
North Central West Virginia

CITY           SKY/WX    TMP DP  RH WIND       PRES   REMARKS
CLARKSBURG     CLOUDY    39  30  70 SW12G20   29.87R
MORGANTOWN     CLOUDY    39  28  64 VRB7      29.85R
$$

WVZ025-035-042-045-191700-
Southern West Virginia

CITY           SKY/WX    TMP DP  RH WIND       PRES   REMARKS
BECKLEY        CLOUDY    33  29  85 W10G22    29.90R
LOGAN          CLOUDY    37  27  65 CALM      29.96R
BLUEFIELD      CLOUDY    31  27  85 NW14G24   29.90R
LEWISBURG      CLOUDY    37  29  73 W8        29.87R
$$

WVZ047-191700-
Northern Mountains of West Virginia

CITY           SKY/WX    TMP DP  RH WIND       PRES   REMARKS
ELKINS         CLOUDY    36  32  85 NW12G20   29.85R
$$

WVZ052-191700-
Eastern Panhandle of West Virginia

CITY           SKY/WX    TMP DP  RH WIND       PRES   REMARKS
MARTINSBURG    CLOUDY    48  29  47 W21G28    29.75R
PETERSBURG     CLOUDY    41  31  67 N10G26    29.82R
$$




USA.gov is the U.S. government's official web portal to all federal, state and local government web resources and services.